This is the latest recevied weather packets stored in our database for station/object PD2BVG. If no packets are shown the sender has not sent any weather packets the latest 10 day(s).
| Time | Temp. | Humidity | Pressure | Rain* | Wind** | Luminosity | Snow |
|---|---|---|---|---|---|---|---|
| 1788012432 | 18.89° C | 93% | 1008.3 hPa | 0 mm | - | 127 W/m² | - |
| 1788012372 | 18.89° C | 93% | 1008.2 hPa | 0 mm | - | 134 W/m² | - |
| 1788012312 | 18.89° C | 93% | 1008.3 hPa | 0 mm | - | 111 W/m² | - |
| 1788012253 | 18.89° C | 93% | 1008.4 hPa | 0 mm | - | 107 W/m² | - |
| 1788012191 | 18.89° C | 94% | 1008.2 hPa | 0 mm | - | 125 W/m² | - |
| 1788012130 | 18.89° C | 94% | 1008.3 hPa | 0 mm | - | 151 W/m² | - |
| 1788012070 | 18.89° C | 94% | 1008.3 hPa | 0 mm | - | 155 W/m² | - |
| 1788012011 | 18.89° C | 94% | 1008.3 hPa | 0 mm | - | 144 W/m² | - |
| 1788011949 | 18.89° C | 94% | 1008.4 hPa | 0 mm | - | 136 W/m² | - |
| 1788011886 | 18.89° C | 94% | 1008.4 hPa | 0 mm | - | 118 W/m² | - |
| 1788011828 | 18.89° C | 94% | 1008.5 hPa | 0 mm | - | 111 W/m² | - |
| 1788011767 | 18.89° C | 94% | 1008.4 hPa | 0 mm | - | 121 W/m² | - |
| 1788011706 | 18.89° C | 94% | 1008.4 hPa | 0 mm | - | 132 W/m² | - |
| 1788011645 | 18.89° C | 93% | 1008.5 hPa | 0 mm | - | 155 W/m² | - |
| 1788011585 | 18.89° C | 93% | 1008.5 hPa | 0 mm | - | 151 W/m² | - |
| 1788011524 | 18.89° C | 93% | 1008.6 hPa | 0 mm | - | 106 W/m² | - |
| 1788011464 | 18.89° C | 93% | 1008.4 hPa | 0 mm | - | 106 W/m² | - |
| 1788011402 | 18.89° C | 92% | 1008.6 hPa | 0 mm | - | 114 W/m² | - |
| 1788011343 | 18.89° C | 92% | 1008.6 hPa | 0 mm | - | 106 W/m² | - |
| 1788011282 | 18.89° C | 92% | 1008.5 hPa | 0 mm | - | 100 W/m² | - |
| 1788011222 | 18.89° C | 92% | 1008.5 hPa | 0 mm | - | 92 W/m² | - |
| 1788011161 | 18.89° C | 92% | 1008.5 hPa | 0 mm | - | 83 W/m² | - |
| 1788011101 | 19.44° C | 92% | 1008.5 hPa | 0 mm | - | 86 W/m² | - |
| 1788011041 | 19.44° C | 92% | 1008.6 hPa | 0 mm | - | 106 W/m² | - |
| 1788010982 | 19.44° C | 92% | 1008.6 hPa | 0 mm | - | 127 W/m² | - |
* Rain latest hour (hover to see other rain measurements)
** Current wind speed in m/s (hover to see current wind gust speed)